User: anonymous   Login
Location: Albany
(35.0000°S, 118.0000°E)
Time: 11:28:37
(UTC-04:00)
Language:

SJ-6B - Orbit

View from above orbital plane
View from above orbital plane
View from above satellite
View from above satellite

Ground track
Ground track

The orbit data is extracted from the following two-line orbital elements,

1 28415U 04035C   17228.27534588 +.00000047 +00000-0 +77125-5 0  9992
2 28415 097.7431 257.7344 0050643 277.5278 082.0197 15.06245176707627
Epoch (UTC): 16 August 2017 06:36:29
Eccentricity: 0.0050643
inclination: 97.7431°
perigee height: 512 km
apogee height: 583 km
right ascension of ascending node: 257.7344°
argument of perigee: 277.5278°
revolutions per day: 15.06245176
mean anomaly at epoch: 82.0197°
orbit number at epoch: 70762

The dashed part of the orbit path shows where the satellite is in the earth's shadow,  

DLR